COSMOS 2333

Satellite information

Favourite Embed

Satellite Type and Status

PAYLOADIN ORBIT

Key statistics

Satellite COSMOS 2333 at a glance.

Uptime

10471

Days in orbit

Revolutions

≈ 14.1

Per day

Orbit

LEO

Low Earth Orbit

Inclination

70.9

Latest

Satellite identification and parameters

Extended collection of information and parameters for COSMOS 2333.

Object identification

Identified? True

Debris? False

Object name: COSMOS 2333

International designator: 1996-051A

Object number (NORAD): 24297

Object ID (CCSDS): 24297

Country: COMMONWEALTH OF INDEPENDENT STATES (CIS)

Current information (Y/N): Y

RCS size: LARGE

Orbital parameters

Period: 101.856 minutes

Inclination: 70.9034 deg

SMA: 7224.692 km

Apoapsis: 864.548 km

Periapsis: 828.565 km

RAAN: 113.6457 deg

Eccentricy: 0.0024903

Argument of periapsis: 211.3469 deg

Mean anomaly: 148.617 deg

Mean motion: 14.13753845 rev/day

Mean motion (dot): 0.00000059 rev/day2

B* drag term: 0.000056594 1/REarth

Two-line elements (TLE)

Creation date: May 6, 2025, 3:54 a.m.

Reference frame: TEME

Reference center: EARTH

Epoch: May 5, 2025, 9:48 a.m. UTC

TLE line 0: 0 COSMOS 2333

TLE line 1: 1 24297U 96051A 25125.40886024 .00000059 00000-0 56594-4 0 9999

TLE line 2: 2 24297 70.9034 113.6457 0024903 211.3469 148.6170 14.13753845478669

Live tracking on map

Real-time ground track for satellite COSMOS 2333.

In-orbit conjunctions

A list of the most updated potential collisions computed for object COSMOS 2333.

Target Orbit TCA Probability of collision Miss distance Type
SL-14 DEB LEO 2025-02-27 20:17:34 0.0001485943 558.0 (m) DEBRIS
NOAA 16 DEB SSO 2025-02-18 16:23:27 0.0003035797 157.0 (m) DEBRIS
FENGYUN 1C DEB SSO 2025-01-25 09:56:40 0.0001641356 821.0 (m) DEBRIS
THOR ABLESTAR DEB LEO 2025-01-20 00:59:16 0.000139532 430.0 (m) DEBRIS
CZ-6A DEB SSO 2024-10-29 12:46:44 0.0001501991 989.0 (m) DEBRIS

Associated space launch

Second generation ELING satellite

COSMOS 2333 was lifted into orbit during the mission ‘Zenit-2 | Tselina-2 18’, on board a Zenit-2 space rocket.

The launch took place on Sept. 4, 1996, 9:01 a.m. from 45/1.

For more information about the launch, click the button.

Launch to space Zenit-2 | Tselina-2 18
Zenit-2 | Tselina-2 18

Agency: N/A

Status: Launch Successful

Launch date: Sept. 4, 1996, 9:01 a.m. UTC

Rocket: Zenit-2

Launch pad: 45/1

Location: Baikonur Cosmodrome, Republic of Kazakhstan

...

Latest news about this satellite

There are no fresh news available about this satellite. Check back as we update our databases every day.


Newsletter sign-up

Weekly statistics, charts and insights to help you stay on top of the space industry.